Location: Bannatyne
(13.0833°N, 59.5333°W)
Time: 23:57:42
(UTC+00:00)

Explorer 7 - Pass Details

Date: 26 January 2020
Orbit: 485 x 679 km, 50.3° (Epoch: 25 February)

Event Time Altitude Azimuth Distance (km) Brightness Sun altitude
Rises 22:23:41 0° 180° (S) 2,772 10.7 -7.2°
Reaches altitude 10° 22:27:25 10° 147° (SSE) 1,820 9.3 -8.0°
Maximum altitude 22:28:53 12° 127° (SE) 1,698 9.0 -8.4°
Drops below altitude 10° 22:30:19 10° 106° (ESE) 1,781 8.9 -8.7°
Enters shadow 22:30:52 - 99° (E) 1,865 9.0 -8.8°
Sets 22:33:50 0° 72° (ENE) 2,623 - -9.5°
